Find Starlink 37827

NORAD ID: 100291 Int'l Des: 2026-183 Owner: SPXS Country: US Constellation: starlink operational

当前视图

正在加载3D地球...

About Starlink 37827

Starlink 37827 (NORAD 100291) is a starlink constellation satellite launched Aug 11, 2026 by SPXS of US. with a mass of 575.00 kg.

即将过境

Passes for default location (London). Set your location on the main map for personalized predictions.

高度历史

Loading altitude history...

两行轨道根数

1 A0291U 26183V 26262.97294469 .00046782 00000-0 84349-3 0 9998
2 A0291 53.1591 260.4985 0001658 82.9598 277.1600 15.49331634 6214
Epoch: Sep 19, 2026 • Age: 19 hours

当前状态

高度 422.2 km
远地点 / 近地点 N/A
速度 7.66 km/s
星下点 45.44°N, 33.31°E
发射日期 Aug 11, 2026
运行时间 0.1 years
类型 internet

技术详情

分类 Payload
质量 575.00 kg
干质量 530.00 kg
长度 0.30 m
跨度 29.00 m
形状 ? Box + pan
制造商 SPXS
平台类型 Starlink V2MO
阶段状态 In Orbit
所有者/国家 SPXS/US

Most Searched